Weather History for Mississippi Canyon, LA

Change the Weather History Date:

Friday, February 7, 2014

  Actual Average Record
Temperature  
Mean Temperature 54 °F -  
Max Temperature 59 °F - - ()
Min Temperature 48 °F - - ()
Degree Days  
Heating Degree Days 12    
Growing Degree Days 4 (Base 50)    
Moisture  
Dew Point 47 °F    
Average Humidity 81    
Maximum Humidity 87    
Minimum Humidity 76    
Precipitation  
Precipitation 0.00 in - - ()
Sea Level Pressure  
Sea Level Pressure 30.26 in    
Wind  
Wind Speed 21 mph (NE)    
Max Wind Speed 25 mph    
Max Gust Speed 29 mph    
Visibility 10 miles    
Events      
T = Trace of Precipitation, MM = Missing Value Source: NWS Daily Summary

Daily Weather History Graph

Daily Weather History Graph

Search for Another Location

Airport:

Trip Planner

Search our weather history database for the weather conditions in past years. The results will help you decide how hot, cold, wet, or windy it might be!

Date:

Astronomy

Feb. 07, 2014 Rise Set
Actual Time 6:43 AM CST 5:43 PM CST
Civil Twilight 6:19 AM CST 6:07 PM CST
Nautical Twilight 5:51 AM CST 6:35 PM CST
Astronomical Twilight 5:23 AM CST 7:03 PM CST
Moon 11:59 AM CST (2/7) 12:55 AM CST (2/7)
Length of Visible Light 11h 48m
Length of Day
10h 59m
First Quarter, 59% of the Moon is Illuminated
Feb 7
First Quarter
Feb 14
Full
Feb 22
Last Quarter
Mar 1
New
Mar 8
First Quarter

Hourly Weather History & Observations

Time (CST) Temp. Dew Point Humidity Pressure Visibility Wind Dir Wind Speed Gust Speed Precip Events Conditions
12:15 AM 48.2 °F 42.8 °F 82% 30.30 in 10.0 mi NE 21.9 mph - N/A   Overcast
12:35 AM 48.2 °F 42.8 °F 82% 30.29 in 10.0 mi NE 20.7 mph - N/A   Overcast
12:55 AM 48.2 °F 42.8 °F 82% 30.29 in 10.0 mi NE 20.7 mph - N/A   Overcast
1:15 AM 48.2 °F 42.8 °F 82% 30.29 in 10.0 mi NE 20.7 mph - N/A   Overcast
1:35 AM 48.2 °F 42.8 °F 82% 30.29 in 10.0 mi NE 19.6 mph - N/A   Overcast
1:55 AM 50.0 °F 42.8 °F 76% 30.29 in 10.0 mi NE 18.4 mph - N/A   Overcast
2:15 AM 50.0 °F 42.8 °F 76% 30.28 in 10.0 mi NE 19.6 mph - N/A   Overcast
2:35 AM 50.0 °F 42.8 °F 76% 30.26 in 10.0 mi NE 23.0 mph - N/A   Overcast
2:55 AM 50.0 °F 42.8 °F 76% 30.27 in 10.0 mi NE 20.7 mph - N/A   Overcast
3:15 AM 50.0 °F 42.8 °F 76% 30.28 in 10.0 mi NNE 21.9 mph - N/A   Overcast
3:35 AM 50.0 °F 42.8 °F 76% 30.28 in 10.0 mi North - - N/A   Overcast
3:55 AM 50.0 °F 42.8 °F 76% 30.28 in 10.0 mi NNE 20.7 mph - N/A   Overcast
4:15 AM 50.0 °F 42.8 °F 76% 30.28 in 10.0 mi North - - N/A   Overcast
4:35 AM 48.2 °F 42.8 °F 82% 30.28 in 10.0 mi NNE 21.9 mph - N/A   Overcast
4:55 AM 48.2 °F 42.8 °F 82% 30.28 in 10.0 mi NE 20.7 mph - N/A   Overcast
5:15 AM 48.2 °F 42.8 °F 82% 30.28 in 10.0 mi NE 23.0 mph - N/A   Overcast
5:35 AM 48.2 °F 42.8 °F 82% 30.28 in 10.0 mi NNE 23.0 mph - N/A   Overcast
5:55 AM 48.2 °F 42.8 °F 82% 30.29 in 10.0 mi NE 23.0 mph - N/A   Overcast
6:15 AM 48.2 °F 44.6 °F 87% 30.29 in 10.0 mi NE 23.0 mph - N/A   Overcast
6:35 AM 48.2 °F 44.6 °F 87% 30.29 in 10.0 mi NE 23.0 mph - N/A   Overcast
6:55 AM 48.2 °F 44.6 °F 87% 30.30 in 10.0 mi North - - N/A   Overcast
7:15 AM 48.2 °F 44.6 °F 87% 30.31 in 10.0 mi NE 21.9 mph - N/A   Overcast
7:35 AM 48.2 °F 44.6 °F 87% 30.30 in 10.0 mi NE 19.6 mph 26.5 mph N/A   Overcast
7:55 AM 48.2 °F 44.6 °F 87% 30.31 in 10.0 mi NE 21.9 mph - N/A   Overcast
8:15 AM 50.0 °F 44.6 °F 82% 30.31 in 10.0 mi NE 21.9 mph - N/A   Overcast
8:35 AM 50.0 °F 44.6 °F 82% 30.32 in 10.0 mi NE 21.9 mph - N/A   Mostly Cloudy
8:55 AM 50.0 °F 44.6 °F 82% 30.32 in 10.0 mi NE 20.7 mph - N/A   Overcast
9:15 AM 50.0 °F 44.6 °F 82% 30.32 in 10.0 mi NE 21.9 mph - N/A   Mostly Cloudy
9:35 AM 51.8 °F 46.4 °F 82% 30.31 in 10.0 mi NE 24.2 mph - N/A   Mostly Cloudy
9:55 AM 51.8 °F 46.4 °F 82% 30.32 in 10.0 mi NE 23.0 mph - N/A   Mostly Cloudy
10:15 AM 51.8 °F 46.4 °F 82% 30.33 in 10.0 mi NE 19.6 mph 26.5 mph N/A   Partly Cloudy
10:35 AM 51.8 °F 46.4 °F 82% 30.33 in 10.0 mi NNE 21.9 mph - N/A   Scattered Clouds
10:55 AM 51.8 °F 46.4 °F 82% 30.33 in 10.0 mi NNE 23.0 mph - N/A   Mostly Cloudy
11:15 AM 51.8 °F 46.4 °F 82% 30.32 in 10.0 mi NE 21.9 mph - N/A   Overcast
11:35 AM 51.8 °F 46.4 °F 82% 30.30 in 10.0 mi NE 25.3 mph - N/A   Overcast
11:55 AM 51.8 °F 46.4 °F 82% 30.28 in 10.0 mi NE 23.0 mph - N/A   Overcast
12:15 PM 51.8 °F 46.4 °F 82% 30.27 in 10.0 mi NE 24.2 mph - N/A   Mostly Cloudy
12:35 PM 51.8 °F 46.4 °F 82% 30.25 in 10.0 mi NE 24.2 mph - N/A   Mostly Cloudy
12:55 PM 51.8 °F 46.4 °F 82% 30.25 in 10.0 mi NE 23.0 mph - N/A   Mostly Cloudy
1:15 PM 51.8 °F 46.4 °F 82% 30.24 in 10.0 mi NE 21.9 mph - N/A   Mostly Cloudy
1:35 PM 51.8 °F 46.4 °F 82% 30.24 in 10.0 mi NE 20.7 mph - N/A   Mostly Cloudy
1:55 PM 53.6 °F 46.4 °F 77% 30.23 in 10.0 mi ENE 20.7 mph - N/A   Overcast
2:15 PM 53.6 °F 48.2 °F 82% 30.23 in 10.0 mi ENE 20.7 mph - N/A   Overcast
2:35 PM 53.6 °F 46.4 °F 77% 30.22 in 10.0 mi NE 19.6 mph 28.8 mph N/A   Overcast
2:55 PM 53.6 °F 46.4 °F 77% 30.22 in 10.0 mi ENE 20.7 mph - N/A   Overcast
3:15 PM 53.6 °F 46.4 °F 77% 30.21 in 10.0 mi ENE 21.9 mph - N/A   Overcast
3:35 PM 53.6 °F 46.4 °F 77% 30.21 in 10.0 mi ENE 21.9 mph - N/A   Overcast
3:55 PM 53.6 °F 46.4 °F 77% 30.21 in 10.0 mi ENE 23.0 mph - N/A   Mostly Cloudy
4:15 PM 53.6 °F 48.2 °F 82% 30.20 in 10.0 mi ENE 23.0 mph - N/A   Overcast
4:35 PM 53.6 °F 48.2 °F 82% 30.21 in 10.0 mi NE 23.0 mph - N/A   Overcast
4:55 PM 53.6 °F 48.2 °F 82% 30.23 in 10.0 mi NE 20.7 mph - N/A   Overcast
5:15 PM 53.6 °F 48.2 °F 82% 30.21 in 10.0 mi ENE 23.0 mph - N/A   Overcast
5:35 PM 55.4 °F 48.2 °F 77% 30.22 in 10.0 mi ENE 21.9 mph 27.6 mph N/A   Overcast
5:55 PM 53.6 °F 48.2 °F 82% 30.23 in 10.0 mi NE 19.6 mph - N/A   Overcast
6:15 PM 53.6 °F 48.2 °F 82% 30.23 in 10.0 mi ENE 20.7 mph - N/A   Overcast
6:35 PM 55.4 °F 50.0 °F 82% 30.22 in 10.0 mi NE 18.4 mph - N/A   Overcast
6:55 PM 55.4 °F 50.0 °F 82% 30.23 in 10.0 mi NE 20.7 mph - N/A   Overcast
7:15 PM 55.4 °F 48.2 °F 77% 30.24 in 10.0 mi NE 20.7 mph - N/A   Overcast
7:35 PM 55.4 °F 50.0 °F 82% 30.24 in 10.0 mi NE 19.6 mph - N/A   Overcast
7:55 PM 55.4 °F 50.0 °F 82% 30.24 in 10.0 mi ENE 19.6 mph - N/A   Overcast
8:15 PM 55.4 °F 50.0 °F 82% 30.24 in 10.0 mi NE 19.6 mph - N/A   Overcast
8:35 PM 55.4 °F 50.0 °F 82% 30.23 in - ENE 18.4 mph - N/A   Overcast
8:55 PM 57.2 °F 50.0 °F 77% 30.22 in - ENE 20.7 mph - N/A   Overcast
9:15 PM 57.2 °F 51.8 °F 82% 30.22 in 10.0 mi ENE 18.4 mph - N/A   Overcast
9:35 PM 57.2 °F 51.8 °F 82% 30.22 in 10.0 mi ENE 18.4 mph - N/A   Overcast
9:55 PM 57.2 °F 51.8 °F 82% 30.21 in 10.0 mi ENE 19.6 mph - N/A   Overcast
10:15 PM 57.2 °F 51.8 °F 82% 30.20 in 10.0 mi NE 20.7 mph - N/A   Overcast
10:35 PM 57.2 °F 51.8 °F 82% 30.19 in 10.0 mi ENE 20.7 mph - N/A   Overcast
10:55 PM 59.0 °F 53.6 °F 82% 30.18 in 10.0 mi ENE 20.7 mph - N/A   Overcast
11:15 PM 59.0 °F 53.6 °F 82% 30.19 in 10.0 mi ENE 19.6 mph - N/A   Overcast
11:35 PM 59.0 °F 53.6 °F 82% 30.20 in 10.0 mi NE 17.3 mph - N/A   Overcast
11:55 PM 59.0 °F 53.6 °F 82% 30.18 in 10.0 mi East 19.6 mph - N/A   Mostly Cloudy